Wind_Speed
60 60 58 57 54 53 52 50 45 47 46 44 41 40 36 37 35 35 33 29 31 29 28 27 24 25 26 27 27 28 29 29 30 27 27 29 28 29 27 25 20 18 17 17 18 19 21 22 25
63 62 63 61 56 55 55 54 51 48 47 48 45 44 43 40 38 37 37 33 31 33 34 33 31 30 30 32 33 33 33 33 33 31 30 30 31 31 31 28 23 20 20 20 22 23 24 25 28
65 65 66 63 59 57 62 60 55 51 51 50 49 46 46 44 43 41 40 39 38 36 37 36 36 34 34 32 35 37 38 38 36 34 34 34 34 33 35 31 27 23 22 24 24 26 27 29 27
71 69 68 66 63 65 65 65 61 56 54 53 52 49 49 50 49 47 46 44 43 41 39 39 38 36 37 35 34 38 41 42 41 39 37 36 35 36 34 32 29 26 26 26 27 27 28 28 30
77 69 70 68 67 69 67 71 66 61 59 55 53 53 52 53 53 51 48 47 47 46 45 43 39 37 37 38 38 38 41 44 42 42 39 36 35 36 34 32 30 30 29 29 29 29 30 30 34
84 76 71 70 72 72 72 74 71 67 63 61 58 57 56 56 57 56 54 52 52 50 49 47 43 39 40 40 41 39 41 43 40 39 40 37 35 35 34 33 33 32 32 32 32 33 31 33 39
88 85 77 76 77 79 77 79 77 73 68 65 62 61 59 59 57 59 58 56 55 53 52 50 46 41 40 42 43 41 39 42 40 37 38 37 36 34 34 35 35 35 36 36 37 35 35 40 45
88 88 84 79 77 79 81 83 79 76 72 71 68 65 63 59 60 58 58 58 56 55 56 53 48 44 43 44 43 41 39 40 41 38 37 38 37 36 36 36 38 39 39 41 42 41 42 46 49
86 87 84 81 82 83 86 83 80 78 78 76 74 69 65 64 63 62 60 58 57 56 54 53 50 48 47 44 42 40 42 42 42 40 39 39 39 40 40 41 42 42 43 44 45 45 47 51 53
91 89 86 87 85 87 86 87 83 82 82 81 78 74 71 69 67 64 63 60 59 57 57 54 51 48 47 44 44 44 43 46 46 44 43 42 42 43 45 46 46 46 45 45 46 49 52 54 57
91 91 91 91 89 86 87 89 87 84 86 81 79 78 77 72 70 69 63 62 60 61 59 57 54 51 50 49 47 46 45 48 48 48 47 46 45 46 47 47 48 49 49 50 50 52 55 56 59
80 85 94 97 91 91 91 90 93 88 85 86 85 84 80 77 67 70 70 66 62 61 60 60 58 55 54 53 51 49 49 50 51 51 50 48 48 47 48 49 51 51 53 54 56 58 59 61 64
77 79 84 91 98 98 99 89 90 89 88 86 88 88 84 80 78 61 64 72 69 68 65 61 60 58 58 57 55 53 53 54 53 52 51 51 51 52 51 52 53 55 56 58 60 61 61 65 65
83 84 85 86 87 92 98 100 98 93 89 83 86 88 88 86 81 79 74 69 68 75 72 67 63 61 60 60 60 58 56 58 57 56 54 54 55 56 57 58 60 60 61 61 62 64 66 67 67
87 87 88 87 88 86 90 94 95 99 97 92 86 88 89 87 85 81 78 79 76 71 73 73 72 66 65 63 63 64 62 61 62 62 60 60 61 62 62 63 64 65 66 65 66 69 69 69 70
92 90 91 91 93 94 93 80 84 96 104 101 95 94 91 90 90 85 82 80 80 79 78 77 75 74 71 70 66 64 66 67 66 66 66 66 66 66 66 67 67 68 69 70 70 70 72 76 79
97 100 99 98 95 96 93 86 89 95 104 103 102 97 94 95 90 89 88 83 82 81 83 81 80 77 74 72 72 69 68 70 68 69 70 71 69 69 70 71 72 73 72 73 74 75 77 78 81
90 103 105 104 104 102 93 91 98 99 94 94 95 104 99 98 91 92 89 86 86 84 84 82 83 81 78 76 74 74 74 74 72 72 72 72 73 73 75 75 73 74 76 77 77 78 81 79 86
79 86 94 104 111 110 100 101 105 100 99 96 92 95 101 100 90 100 93 96 90 87 85 86 85 82 82 80 77 76 77 77 78 77 76 75 76 77 75 74 78 80 80 82 82 85 85 89 93
73 85 88 92 96 97 108 111 108 109 98 101 102 97 92 94 99 102 95 91 93 93 91 85 84 86 84 84 82 82 80 80 78 78 79 79 78 78 78 81 83 84 87 86 88 92 94 99 93
54 60 70 79 85 92 98 105 117 111 105 103 101 99 95 88 96 94 95 97 94 93 92 89 87 84 89 90 87 87 86 84 81 80 81 81 81 82 85 85 87 89 92 93 98 99 97 93 97
42 35 45 52 64 77 95 106 108 109 112 108 102 96 97 96 86 95 99 94 94 96 95 91 89 91 93 93 91 90 89 85 85 87 87 89 88 90 91 91 92 94 97 101 101 97 94 99 103
34 28 22 37 47 61 77 100 112 110 111 112 105 100 97 99 94 86 96 84 88 93 99 101 101 99 95 94 91 93 93 92 92 93 94 94 93 94 96 99 101 105 106 102 99 96 101 106 109
32 28 15 19 36 49 62 79 99 113 111 112 104 102 98 100 98 92 93 109 91 92 94 99 98 96 93 92 95 98 98 97 98 99 98 98 100 102 104 103 100 101 102 102 99 101 107 113 117
29 28 16 13 18 39 52 64 79 103 115 109 106 106 103 100 103 100 95 103 94 82 97 99 92 91 94 96 85 84 95 101 99 98 100 98 97 102 102 102 103 105 103 104 106 107 113 116 119
25 27 20 15 15 22 35 53 73 86 107 112 108 106 103 101 103 105 100 99 99 103 87 103 103 98 95 96 79 79 90 100 99 96 97 101 104 105 106 106 108 108 109 111 115 116 120 122 122
28 25 25 17 17 17 23 35 55 76 97 111 109 106 106 104 104 108 103 98 92 98 91 84 88 89 96 106 107 101 94 95 100 100 103 110 111 107 111 112 116 114 114 116 120 121 126 126 127
24 25 24 21 21 22 22 25 37 62 84 106 110 106 105 103 100 105 105 101 104 102 96 92 90 93 97 101 96 95 104 104 105 109 112 115 117 114 114 119 119 120 121 122 126 129 131 128 124
26 24 26 24 24 28 33 35 29 42 68 92 107 106 104 103 98 105 102 96 98 97 103 103 96 94 87 95 103 109 112 116 113 115 121 121 116 121 120 118 122 125 127 130 133 131 124 116 103
30 26 25 27 26 28 34 35 38 40 52 74 98 104 102 104 98 97 97 95 95 96 100 102 98 105 100 95 94 101 106 112 116 113 117 115 119 118 120 124 126 129 133 134 122 114 103 97 96
Wind_Direction
231 232 230 233 231 229 229 226 221 226 226 230 227 224 229 226 219 224 222 230 236 243 247 248 247 248 249 252 252 255 257 259 261 263 266 263 261 265 267 271 275 280 282 290 292 299 301 308 315
231 229 228 231 230 231 230 228 226 223 227 229 230 227 227 231 230 226 226 228 229 239 245 248 247 246 248 248 250 253 256 260 262 266 270 269 268 264 265 270 270 274 284 290 296 301 305 308 316
232 229 229 229 230 232 232 229 226 225 226 229 229 230 229 227 231 231 233 236 236 239 243 247 249 248 247 249 252 252 253 257 261 264 268 267 267 266 267 268 266 276 283 285 297 305 311 312 313
237 230 227 227 228 231 232 231 227 221 225 231 231 231 232 230 229 231 235 238 239 244 248 253 252 251 253 251 256 258 254 256 258 260 263 266 267 265 266 267 268 274 281 288 296 301 303 305 311
238 237 227 225 230 232 231 231 230 227 222 227 231 230 233 232 232 232 234 239 242 245 247 248 252 249 249 251 257 261 259 260 262 261 257 260 262 262 266 266 267 273 280 288 292 293 299 308 313
239 237 229 226 229 232 232 230 229 229 226 224 229 231 231 233 232 236 237 239 242 245 247 249 250 251 248 252 255 258 257 254 260 256 258 258 260 265 264 264 268 275 280 283 286 292 297 304 310
238 239 230 225 230 229 231 232 228 228 227 227 226 232 234 234 235 236 239 241 243 246 248 249 250 251 252 253 255 259 259 254 256 259 258 258 259 261 266 270 272 276 278 281 285 290 294 303 310
234 236 232 226 230 230 230 231 230 228 227 227 226 228 232 237 238 238 239 241 243 246 247 249 250 251 252 254 257 256 258 251 255 259 258 258 261 264 267 269 272 274 276 282 286 290 295 302 306
232 232 233 233 230 233 230 231 233 228 228 226 228 226 227 233 237 239 240 240 242 245 246 247 247 249 250 252 256 253 257 250 251 257 259 261 265 267 268 270 272 275 278 282 288 292 296 299 302
230 232 232 232 230 232 232 230 233 230 230 227 227 228 227 228 234 239 240 240 241 245 247 248 249 250 253 254 249 250 250 250 248 255 260 262 264 267 269 272 273 278 281 285 290 293 294 297 301
230 229 229 231 230 231 233 232 234 232 230 228 229 231 230 229 232 235 238 242 244 244 244 245 248 250 252 254 248 247 250 250 249 252 257 260 264 269 272 275 278 282 282 285 289 290 294 297 301
226 228 231 232 232 229 229 230 234 234 231 228 231 231 232 232 235 236 236 239 243 246 246 246 247 249 252 254 249 248 248 249 250 254 259 263 267 271 274 277 279 282 282 284 286 289 293 299 299
230 229 228 231 231 232 232 230 235 234 234 230 233 235 232 233 236 231 240 240 242 243 245 246 247 249 248 253 251 250 249 250 252 256 260 262 266 269 273 276 278 279 281 284 286 289 293 296 300
235 232 227 229 230 232 234 232 231 234 235 234 232 236 237 233 237 238 234 241 242 243 245 244 244 248 250 249 250 251 252 252 254 258 261 264 267 269 271 273 274 277 281 284 287 290 293 296 299
237 237 234 229 229 231 234 232 230 233 234 235 231 236 239 241 240 240 243 242 244 243 243 246 245 245 249 251 251 250 250 251 253 256 260 264 266 267 269 272 276 278 282 286 287 290 293 295 298
239 238 237 235 231 230 233 231 233 230 234 232 229 233 234 242 240 243 242 243 246 244 244 246 247 246 247 250 252 253 253 254 253 254 258 263 267 269 272 274 277 279 282 285 289 291 293 295 300
241 240 239 237 235 234 232 231 233 229 231 231 230 229 233 239 240 242 241 242 244 245 246 246 247 248 248 249 253 254 254 254 257 259 260 263 266 270 273 274 275 278 285 286 288 293 296 300 302
246 245 243 242 239 235 233 232 234 232 229 232 231 232 227 232 237 245 244 244 244 244 246 248 249 249 249 249 251 254 257 259 258 259 261 262 265 267 271 274 279 282 283 285 291 295 299 301 300
247 247 248 244 241 240 235 232 234 233 229 231 231 234 230 227 230 238 241 245 245 245 245 247 249 251 253 253 254 256 257 258 260 261 264 267 268 271 273 276 279 281 284 286 293 295 298 297 295
254 253 250 248 245 241 237 234 233 232 231 229 230 232 231 228 227 235 241 240 245 245 247 248 250 252 253 254 257 258 259 260 262 264 265 267 271 274 275 276 279 283 285 290 293 294 295 293 296
263 260 253 247 244 238 234 230 233 230 231 231 230 231 234 229 227 230 236 238 244 248 249 249 246 247 254 254 255 257 260 263 266 269 270 272 272 273 274 276 280 285 289 291 290 290 291 292 293
267 263 255 243 236 232 229 225 227 228 226 228 229 230 232 232 229 226 231 240 243 241 243 242 246 246 247 252 254 258 261 265 267 268 269 269 270 272 275 278 281 286 286 286 288 288 292 294 295
274 271 270 251 235 226 225 222 223 224 224 224 227 228 230 233 231 229 224 230 239 244 245 246 247 251 251 253 256 257 260 262 263 265 267 269 272 274 277 279 279 280 283 287 291 291 293 295 298
276 281 277 261 238 228 220 217 221 221 222 221 220 225 226 230 233 230 224 229 238 242 243 245 250 253 255 256 257 258 260 261 264 265 267 268 271 274 275 279 282 285 287 288 290 290 292 295 299
268 278 273 271 234 226 224 220 219 219 220 220 219 221 224 227 230 231 229 230 234 239 246 247 251 251 254 259 258 258 263 268 270 272 272 273 275 279 280 281 284 287 287 288 288 290 292 296 295
264 272 271 261 241 228 223 221 220 217 218 217 218 219 222 225 228 231 231 232 235 238 245 246 249 254 256 258 256 259 260 270 271 271 270 273 277 280 281 282 285 285 286 288 289 293 293 293 295
256 258 266 246 237 228 226 225 220 218 216 215 215 217 221 224 227 231 232 232 235 238 241 244 249 254 259 256 256 262 263 263 266 270 269 274 277 280 279 283 284 285 286 289 291 292 294 295 296
252 249 258 250 231 223 223 220 226 220 217 215 214 216 221 224 226 228 232 235 236 238 243 245 248 259 258 257 254 258 263 266 268 269 269 272 277 276 280 283 284 286 288 289 290 292 293 293 293
238 252 245 250 237 223 216 219 214 224 220 217 215 216 220 223 226 227 231 235 239 243 244 244 246 245 252 249 256 262 264 267 269 269 271 276 277 278 281 283 285 287 288 290 291 292 291 292 290
230 234 239 238 240 236 226 223 218 220 224 220 217 218 221 223 227 231 227 231 233 236 239 242 247 247 252 254 257 261 263 264 269 272 274 275 275 278 278 282 284 286 288 289 291 290 290 291 291
Height
10916 10919 10925 10929 10937 10945 10949 10955 10960 10964 10968 10973 10976 10978 10982 10984 10987 10990 10991 10992 10994 10993 10993 10994 10996 10997 10998 10999 11000 11000 11000 11000 10999 10999 10999 10999 10999 10999 10999 10999 10999 10999 10998 10997 10995 10994 10993 10992 10990
10905 10909 10915 10921 10929 10936 10939 10944 10951 10957 10962 10965 10968 10971 10974 10978 10980 10983 10984 10985 10987 10988 10989 10989 10991 10992 10993 10995 10995 10995 10995 10995 10996 10995 10996 10996 10997 10996 10996 10996 10996 10995 10994 10994 10993 10991 10990 10988 10988
10893 10899 10905 10913 10919 10927 10927 10932 10941 10950 10953 10956 10959 10964 10967 10970 10973 10976 10977 10978 10980 10981 10983 10984 10985 10987 10987 10989 10990 10991 10991 10991 10991 10992 10993 10992 10992 10993 10993 10993 10992 10992 10991 10990 10989 10987 10986 10985 10984
10879 10887 10896 10903 10909 10910 10916 10923 10929 10937 10944 10948 10952 10956 10959 10961 10964 10967 10970 10971 10973 10975 10977 10978 10979 10981 10982 10983 10984 10985 10985 10985 10986 10987 10987 10987 10988 10988 10988 10989 10987 10987 10986 10985 10984 10984 10982 10980 10979
10861 10875 10885 10894 10899 10898 10904 10908 10919 10927 10934 10939 10944 10946 10950 10952 10956 10959 10962 10964 10965 10967 10969 10971 10973 10975 10976 10977 10978 10978 10978 10979 10981 10981 10981 10982 10983 10983 10984 10984 10983 10982 10981 10981 10980 10979 10978 10976 10974
10846 10859 10874 10885 10884 10885 10889 10895 10905 10915 10924 10930 10934 10937 10940 10942 10947 10949 10953 10955 10956 10959 10960 10962 10965 10968 10969 10969 10970 10971 10971 10972 10974 10975 10976 10977 10978 10978 10979 10978 10978 10978 10977 10977 10976 10975 10973 10971 10969
10833 10842 10860 10863 10867 10871 10875 10878 10890 10902 10912 10919 10927 10927 10932 10934 10939 10941 10943 10946 10948 10950 10953 10954 10957 10959 10961 10962 10963 10964 10965 10966 10967 10968 10969 10970 10971 10973 10974 10974 10974 10973 10973 10972 10971 10970 10967 10965 10962
10817 10827 10839 10851 10854 10857 10860 10864 10877 10890 10900 10906 10912 10916 10921 10928 10930 10932 10935 10937 10940 10942 10943 10946 10948 10950 10952 10954 10955 10957 10959 10959 10961 10962 10963 10964 10966 10967 10968 10968 10968 10968 10967 10967 10966 10964 10961 10958 10955
10800 10812 10829 10833 10837 10839 10844 10857 10864 10875 10882 10889 10896 10904 10912 10914 10919 10922 10925 10929 10931 10932 10935 10937 10940 10943 10943 10945 10947 10949 10951 10952 10954 10955 10957 10959 10960 10960 10961 10962 10962 10962 10962 10961 10960 10958 10954 10951 10948
10784 10795 10807 10808 10817 10825 10833 10841 10849 10859 10866 10873 10884 10894 10898 10904 10909 10913 10916 10918 10922 10925 10927 10929 10931 10934 10935 10937 10938 10940 10942 10945 10946 10948 10951 10952 10953 10953 10954 10955 10955 10955 10955 10954 10952 10950 10947 10943 10939
10769 10782 10785 10790 10800 10811 10817 10827 10833 10844 10852 10868 10876 10881 10887 10895 10898 10903 10907 10909 10912 10915 10917 10920 10923 10926 10927 10928 10930 10932 10934 10937 10939 10940 10942 10944 10945 10946 10947 10948 10947 10947 10947 10946 10944 10941 10938 10935 10931
10748 10759 10768 10773 10784 10791 10798 10809 10812 10827 10842 10851 10856 10865 10875 10883 10886 10891 10896 10900 10902 10905 10908 10909 10914 10917 10918 10919 10921 10924 10926 10928 10930 10932 10934 10936 10937 10939 10939 10940 10939 10938 10938 10937 10934 10933 10930 10926 10922
10736 10743 10749 10756 10765 10770 10775 10797 10803 10812 10819 10833 10842 10848 10858 10867 10873 10879 10884 10889 10890 10891 10894 10899 10903 10906 10908 10909 10912 10914 10917 10919 10922 10924 10926 10928 10929 10931 10931 10931 10930 10929 10927 10926 10926 10923 10920 10917 10913
10712 10720 10732 10738 10746 10751 10760 10775 10784 10794 10803 10822 10832 10834 10841 10852 10858 10864 10869 10872 10875 10879 10882 10888 10891 10895 10898 10899 10900 10904 10908 10911 10913 10915 10917 10919 10920 10921 10921 10920 10918 10918 10917 10917 10914 10911 10908 10905 10902
10693 10704 10712 10723 10728 10737 10737 10751 10783 10782 10789 10801 10817 10820 10827 10833 10843 10849 10857 10860 10861 10866 10870 10873 10876 10881 10885 10888 10890 10893 10897 10900 10902 10904 10907 10908 10909 10908 10908 10908 10907 10908 10906 10904 10902 10899 10896 10892 10890
10676 10685 10692 10699 10707 10714 10717 10755 10755 10765 10766 10778 10797 10803 10813 10817 10827 10838 10842 10844 10847 10852 10854 10856 10860 10865 10870 10874 10879 10883 10885 10887 10889 10893 10896 10895 10895 10895 10895 10895 10896 10894 10893 10891 10890 10886 10883 10880 10877
10656 10660 10667 10673 10686 10689 10707 10733 10731 10736 10736 10760 10775 10785 10800 10803 10811 10818 10824 10829 10833 10836 10840 10843 10846 10852 10857 10862 10866 10870 10873 10874 10878 10881 10882 10883 10883 10884 10883 10883 10883 10881 10880 10877 10875 10872 10869 10866 10862
10633 10636 10644 10654 10662 10668 10696 10708 10703 10714 10735 10746 10756 10761 10778 10787 10799 10801 10806 10812 10817 10823 10828 10831 10834 10837 10843 10848 10852 10856 10858 10862 10866 10869 10871 10873 10874 10874 10873 10871 10868 10867 10865 10863 10860 10857 10854 10852 10849
10612 10616 10619 10625 10631 10646 10676 10681 10679 10696 10712 10723 10736 10737 10755 10776 10790 10784 10789 10795 10806 10810 10812 10814 10819 10826 10829 10833 10840 10843 10845 10848 10851 10854 10857 10859 10860 10860 10859 10856 10853 10850 10848 10846 10846 10842 10837 10835 10835
10592 10591 10596 10598 10604 10625 10640 10651 10666 10666 10698 10706 10712 10722 10742 10760 10765 10763 10778 10790 10789 10791 10793 10802 10811 10810 10815 10820 10824 10828 10832 10835 10839 10842 10843 10845 10845 10844 10842 10840 10837 10835 10833 10832 10831 10828 10823 10819 10815
10573 10568 10570 10571 10580 10593 10605 10623 10624 10655 10676 10684 10698 10710 10723 10738 10745 10756 10770 10770 10776 10783 10781 10785 10793 10794 10800 10804 10809 10812 10816 10820 10825 10828 10829 10829 10828 10827 10825 10824 10822 10822 10819 10819 10815 10814 10808 10804 10798
10560 10556 10549 10547 10551 10564 10578 10595 10607 10630 10649 10663 10680 10696 10704 10714 10731 10741 10755 10758 10760 10759 10766 10770 10775 10779 10786 10791 10796 10798 10802 10807 10811 10813 10813 10810 10811 10811 10810 10809 10808 10807 10805 10802 10802 10797 10791 10786 10779
10550 10544 10539 10534 10537 10543 10555 10572 10588 10605 10624 10644 10664 10678 10689 10697 10708 10724 10737 10738 10739 10742 10745 10753 10758 10765 10773 10780 10786 10787 10790 10793 10793 10792 10793 10795 10796 10795 10794 10793 10794 10792 10788 10783 10778 10776 10772 10765 10763
10539 10536 10533 10529 10527 10532 10537 10550 10562 10587 10606 10624 10646 10659 10673 10679 10690 10705 10715 10718 10722 10726 10731 10738 10746 10752 10758 10763 10768 10771 10774 10776 10775 10777 10779 10779 10779 10779 10777 10776 10774 10771 10766 10763 10759 10756 10752 10747 10743
10532 10530 10527 10525 10522 10520 10526 10536 10550 10564 10586 10614 10630 10637 10653 10664 10673 10685 10694 10702 10708 10715 10718 10725 10734 10739 10743 10749 10751 10753 10756 10757 10760 10761 10760 10762 10760 10759 10756 10754 10752 10750 10745 10741 10739 10737 10733 10729 10725
10526 10525 10525 10524 10521 10521 10523 10529 10533 10555 10573 10594 10609 10625 10638 10647 10657 10666 10677 10686 10695 10702 10707 10712 10719 10723 10730 10734 10737 10737 10738 10741 10741 10742 10741 10740 10739 10737 10735 10733 10729 10726 10722 10719 10715 10712 10711 10706 10703
10521 10521 10522 10522 10523 10523 10524 10528 10533 10542 10557 10577 10592 10609 10619 10630 10642 10652 10664 10674 10682 10687 10694 10699 10705 10710 10715 10719 10722 10723 10723 10724 10724 10724 10723 10721 10719 10716 10712 10711 10707 10704 10700 10695 10690 10687 10683 10677 10673
10515 10516 10519 10521 10523 10524 10525 10527 10532 10539 10548 10561 10579 10594 10606 10619 10632 10642 10651 10659 10668 10674 10680 10684 10690 10696 10698 10703 10706 10708 10707 10707 10706 10704 10701 10699 10697 10694 10689 10688 10682 10680 10674 10670 10667 10661 10656 10652 10648
10510 10512 10515 10517 10520 10522 10523 10524 10531 10534 10543 10554 10568 10583 10595 10607 10619 10627 10637 10646 10652 10659 10663 10670 10679 10681 10685 10687 10688 10689 10688 10687 10686 10683 10680 10678 10675 10671 10668 10663 10658 10654 10648 10641 10638 10634 10627 10622 10619
10503 10506 10510 10513 10516 10519 10521 10524 10528 10531 10538 10547 10560 10573 10586 10597 10609 10619 10626 10631 10638 10643 10646 10651 10658 10665 10668 10669 10669 10669 10668 10668 10668 10664 10661 10658 10655 10649 10646 10641 10636 10630 10624 10618 10610 10606 10601 10597 10594